Wind_Speed
24 26 28 29 32 34 34 33 32 31 35 34 29 30 31 33 35 39 42 45 48 51 52 55 58 59 61 63 65 67 69 70 70 71 70 69 69 70 70 70 69 69 68
28 29 30 31 33 35 36 36 35 35 36 36 35 36 37 38 41 43 45 47 50 53 58 62 65 68 71 74 76 76 77 79 80 81 83 82 80 79 80 81 79 77 76
31 32 33 34 34 35 37 38 38 38 38 39 42 42 44 47 47 47 48 50 55 59 63 66 69 72 75 79 80 81 83 83 84 86 87 89 88 88 85 84 84 83 82
33 34 35 36 35 36 38 39 40 42 43 45 47 48 51 51 51 52 55 59 62 66 69 71 74 77 80 82 83 84 84 83 82 80 80 81 81 81 80 78 76 74 73
33 34 35 36 37 39 40 41 43 45 46 47 49 51 53 54 56 59 63 66 69 71 74 76 79 80 81 80 79 77 76 76 75 72 71 71 69 68 69 67 64 64 63
34 36 37 39 40 41 42 43 44 46 47 49 51 53 56 59 62 65 68 71 74 76 78 80 82 81 79 77 74 71 70 69 68 66 66 67 67 65 65 65 61 60 60
36 38 40 41 42 42 42 42 42 44 46 49 52 56 59 63 67 70 73 76 78 80 82 83 82 80 75 71 68 66 65 64 64 64 64 65 65 65 66 67 64 61 58
35 36 36 37 37 37 37 39 42 45 49 53 57 61 64 67 71 74 78 81 83 84 84 82 78 72 66 64 63 62 61 60 59 59 59 59 59 60 61 60 58 55 52
31 30 30 31 32 34 37 41 45 50 54 58 62 66 69 72 77 80 83 85 85 84 80 75 66 60 58 58 57 55 53 51 50 49 48 48 47 46 45 45 45 45 43
31 30 31 33 36 39 43 47 51 55 59 63 67 71 75 79 82 84 85 84 81 76 68 59 54 54 54 53 51 47 44 43 41 39 37 36 35 34 33 33 33 33 32
33 35 36 39 42 45 49 53 57 61 65 70 74 78 81 83 84 84 81 75 66 58 51 50 50 49 47 45 42 40 39 37 36 34 32 30 29 28 27 28 28 27 27
38 39 40 43 46 50 53 58 62 68 72 77 80 83 83 83 79 73 64 54 46 44 44 44 42 40 38 37 36 35 35 35 33 32 30 28 27 26 27 27 27 26 24
41 42 44 47 50 54 58 63 68 73 77 80 81 80 76 69 60 51 43 39 38 37 37 35 34 35 35 33 33 32 32 32 31 29 27 26 25 24 24 22 21 21 21
43 45 47 50 53 58 62 67 71 75 77 75 70 63 54 45 39 34 32 31 30 29 30 31 32 31 29 27 27 27 26 25 23 21 20 20 20 20 19 18 18 18 18
44 46 48 52 56 61 65 68 69 67 62 55 46 39 32 28 26 24 23 23 24 26 27 26 25 24 23 23 23 23 21 19 17 16 15 15 16 16 15 15 16 15 15
44 46 50 54 58 62 64 62 55 47 39 33 28 23 20 19 18 18 19 21 23 24 23 23 23 24 24 23 22 22 20 18 15 14 13 13 12 12 12 12 12 10 11
43 47 52 56 60 61 57 46 35 28 26 23 21 19 17 17 18 20 22 24 25 26 26 26 27 27 26 25 23 22 20 18 16 14 13 11 9 9 10 9 7 6 8
45 50 54 58 59 53 41 28 21 20 19 19 20 20 20 21 23 24 26 27 28 29 29 29 29 29 28 26 24 23 20 17 15 14 13 10 8 7 5 4 4 4 7
47 52 55 55 49 37 24 16 15 16 17 19 21 23 24 25 26 27 28 29 30 30 30 29 29 29 28 26 25 23 20 17 15 13 12 9 8 6 3 2 4 3 4
49 52 50 43 31 20 12 10 12 14 16 19 22 25 26 28 29 31 32 32 32 32 31 30 28 27 25 24 23 22 20 17 14 11 11 9 7 7 6 3 2 2 4
48 44 36 26 16 8 6 7 10 13 16 20 23 26 28 30 33 35 36 36 34 33 32 31 28 25 23 21 20 19 18 16 13 10 8 7 6 7 7 5 1 3 7
40 31 21 11 4 2 3 6 9 13 18 21 24 27 30 33 36 38 38 36 32 30 29 28 26 23 20 18 16 15 15 14 13 11 9 6 5 6 6 5 5 7 10
27 17 8 2 2 3 4 7 11 15 19 23 27 30 34 37 39 40 38 34 29 28 27 26 23 21 20 20 18 15 11 11 11 11 11 9 6 6 6 7 10 12 14
13 6 4 5 7 5 6 9 13 17 21 24 28 32 36 38 40 40 38 33 28 27 26 26 24 23 22 22 21 18 13 9 9 10 13 13 9 8 9 12 14 16 16
5 6 9 10 8 7 9 12 15 18 21 25 29 33 36 39 41 41 39 33 28 27 28 27 25 24 22 20 18 16 13 9 7 8 12 15 14 12 13 15 18 18 16
9 11 12 11 9 9 10 12 15 18 21 25 29 33 36 40 41 42 39 34 29 29 30 28 26 25 25 24 21 15 10 8 6 7 11 15 17 15 15 18 21 19 15
Wind_Direction
280 282 285 291 296 299 300 298 295 288 281 274 277 281 280 282 283 284 286 287 290 292 293 294 295 295 295 294 292 291 290 288 285 283 280 278 276 275 274 273 272 273 272
273 276 279 285 291 294 295 293 290 287 283 280 286 287 286 287 289 289 289 291 293 294 296 299 300 300 299 297 295 294 292 291 290 287 285 283 280 280 280 278 277 276 275
272 276 281 286 289 290 291 291 289 288 286 286 288 287 288 292 294 294 295 296 296 298 299 300 300 298 297 295 295 294 292 291 289 289 288 286 284 283 282 282 280 279 278
279 283 287 289 289 289 289 289 288 288 287 286 286 286 289 291 293 295 296 297 298 299 299 298 297 297 296 295 294 293 291 290 289 288 288 287 287 286 284 281 280 279 278
282 284 285 285 285 286 285 284 285 284 284 284 286 288 290 292 294 295 296 296 297 297 298 298 298 297 297 296 295 293 292 290 290 289 288 287 287 286 284 282 281 281 280
277 278 279 280 281 281 280 279 280 280 282 285 288 289 290 292 293 294 294 294 295 297 298 299 299 299 298 297 295 294 293 291 289 288 287 287 287 286 284 284 284 283 281
280 279 279 280 281 280 279 279 281 283 285 287 288 289 290 291 291 292 293 294 296 298 299 299 299 298 297 296 295 294 292 291 289 288 287 286 285 284 283 283 284 283 280
287 285 284 283 282 282 283 284 285 286 287 288 289 289 290 291 292 293 294 296 297 299 299 300 299 298 297 296 295 295 294 292 291 290 288 287 286 284 283 282 282 281 278
294 291 288 287 286 286 286 287 287 288 289 290 291 292 292 293 293 294 295 297 298 299 299 299 299 298 298 299 299 298 296 295 293 292 291 289 288 287 285 284 283 283 281
296 294 293 293 293 293 292 292 293 294 294 293 293 293 293 293 294 295 297 298 298 298 298 298 298 299 300 300 300 300 298 297 296 295 294 292 290 289 287 287 286 286 286
296 296 296 297 297 297 297 297 297 297 296 296 295 295 295 296 297 298 299 299 298 296 296 296 298 299 300 301 301 300 299 299 299 297 296 295 294 294 292 291 289 288 289
296 296 297 299 300 301 301 301 300 299 299 298 297 298 298 299 299 300 300 298 297 296 296 297 300 302 305 305 304 302 301 301 300 297 296 296 297 297 295 292 289 285 284
298 299 301 303 303 303 303 302 301 301 300 300 300 299 299 300 301 301 300 300 299 298 298 301 305 308 309 309 308 306 304 303 300 296 293 293 297 300 299 295 290 283 278
300 302 303 304 303 303 302 303 303 304 304 303 302 302 303 304 304 304 304 303 302 303 305 309 311 313 314 316 316 315 312 311 308 302 294 291 296 300 302 298 293 281 273
300 301 301 301 301 302 304 306 308 309 309 310 310 311 312 313 314 314 313 311 311 313 317 321 323 324 325 327 329 329 325 323 318 311 301 294 294 297 303 305 303 283 265
297 298 299 300 302 304 308 311 313 317 322 327 330 333 333 332 331 329 327 326 326 326 326 325 322 320 319 321 326 329 329 326 321 315 306 299 293 293 299 305 302 280 250
296 297 299 300 303 307 311 313 319 330 340 351 358 359 356 352 346 340 336 331 328 324 320 316 314 314 314 316 318 320 322 324 324 317 308 301 292 291 296 301 296 263 221
295 297 299 303 307 310 311 314 323 335 347 356 0 360 356 350 345 340 335 330 325 322 318 316 313 312 311 311 311 311 310 309 313 318 313 297 283 288 298 310 320 285 218
295 299 303 306 309 309 310 314 324 336 346 354 357 357 354 350 345 341 338 333 328 324 320 316 313 311 309 307 304 302 301 298 297 304 314 300 271 260 262 308 346 338 212
298 302 306 308 309 308 309 318 331 343 350 355 357 357 355 352 349 346 341 336 331 326 323 319 316 312 309 305 300 296 293 290 285 283 299 299 261 236 228 244 343 33 160
302 306 308 308 308 308 321 340 349 355 359 1 1 1 359 356 353 349 344 339 335 332 331 329 326 321 315 309 302 295 289 281 273 262 270 287 250 224 220 227 193 102 138
305 306 305 303 304 341 17 9 8 8 8 8 8 6 3 359 356 353 349 345 342 341 341 340 338 334 329 322 312 300 288 275 262 243 233 245 236 214 211 202 156 123 133
306 301 290 242 139 112 61 33 23 19 16 13 12 9 6 2 360 357 354 352 351 350 349 347 344 340 335 331 327 319 300 275 257 233 209 207 211 202 185 159 141 128 127
296 268 185 150 136 110 68 42 30 23 17 14 12 10 7 5 3 2 360 358 357 356 353 350 344 337 330 323 318 316 314 292 261 232 203 191 187 183 176 164 151 139 130
235 175 154 145 130 98 66 44 30 20 16 14 13 10 8 7 6 5 4 3 1 359 356 355 352 349 344 336 322 305 299 296 273 235 203 189 179 170 165 167 166 155 147
166 156 150 141 120 90 62 40 26 19 16 14 11 9 7 7 7 7 7 6 3 360 357 356 356 356 357 357 353 335 295 278 270 237 208 191 180 173 165 164 170 171 169
Height
5854 5852 5849 5845 5842 5838 5835 5831 5828 5825 5821 5817 5815 5814 5813 5811 5808 5805 5802 5799 5795 5792 5788 5784 5780 5775 5770 5766 5761 5756 5752 5747 5742 5738 5736 5734 5731 5726 5722 5720 5719 5719 5717
5848 5846 5844 5841 5837 5832 5828 5824 5820 5818 5814 5810 5807 5805 5803 5801 5798 5795 5792 5788 5784 5780 5775 5771 5765 5759 5754 5747 5742 5737 5731 5726 5721 5716 5712 5710 5711 5707 5702 5698 5697 5697 5696
5841 5839 5837 5834 5831 5826 5822 5817 5813 5810 5807 5803 5800 5796 5792 5790 5787 5783 5779 5775 5771 5766 5761 5755 5750 5743 5736 5728 5722 5716 5710 5705 5701 5694 5687 5684 5684 5683 5681 5677 5675 5674 5672
5833 5831 5828 5825 5822 5819 5815 5810 5806 5802 5799 5795 5791 5787 5784 5780 5776 5771 5766 5761 5756 5751 5746 5740 5733 5726 5718 5710 5704 5696 5689 5683 5678 5673 5665 5660 5658 5657 5654 5656 5654 5652 5650
5825 5822 5820 5817 5814 5811 5807 5803 5799 5794 5790 5785 5781 5777 5773 5768 5763 5757 5752 5747 5741 5736 5729 5723 5715 5707 5699 5691 5684 5676 5669 5662 5656 5652 5647 5641 5638 5636 5630 5632 5636 5632 5630
5818 5815 5811 5808 5805 5802 5798 5795 5790 5786 5782 5777 5773 5768 5763 5757 5751 5745 5740 5734 5727 5720 5712 5704 5696 5688 5679 5671 5663 5656 5650 5643 5638 5633 5629 5624 5620 5618 5613 5611 5615 5613 5611
5809 5806 5803 5799 5796 5793 5789 5786 5782 5778 5774 5769 5763 5757 5751 5745 5739 5732 5725 5718 5711 5703 5694 5686 5677 5668 5659 5652 5645 5639 5633 5627 5622 5617 5612 5608 5604 5601 5597 5594 5594 5594 5592
5800 5796 5793 5790 5787 5784 5781 5777 5773 5769 5763 5757 5751 5745 5739 5731 5723 5716 5708 5700 5692 5684 5674 5666 5657 5648 5641 5634 5628 5622 5616 5610 5605 5600 5595 5591 5587 5584 5580 5577 5575 5574 5575
5791 5788 5786 5783 5780 5776 5772 5768 5762 5757 5751 5744 5737 5730 5723 5715 5706 5698 5690 5682 5673 5664 5654 5646 5639 5632 5625 5619 5612 5606 5600 5594 5589 5585 5580 5576 5573 5569 5566 5564 5562 5559 5558
5783 5780 5777 5774 5770 5766 5761 5756 5750 5744 5737 5729 5722 5714 5706 5697 5688 5679 5670 5662 5653 5645 5637 5630 5625 5619 5612 5605 5599 5593 5587 5581 5577 5572 5568 5565 5562 5559 5556 5554 5551 5549 5547
5776 5772 5768 5764 5760 5755 5750 5744 5738 5730 5722 5713 5704 5695 5686 5676 5667 5657 5649 5641 5634 5628 5623 5618 5613 5607 5601 5594 5588 5582 5577 5572 5567 5563 5560 5556 5553 5550 5548 5545 5543 5541 5539
5767 5763 5759 5755 5750 5744 5738 5731 5723 5714 5704 5694 5684 5674 5664 5655 5646 5638 5631 5625 5620 5617 5613 5608 5603 5597 5591 5585 5579 5573 5568 5563 5559 5555 5552 5549 5546 5543 5540 5538 5536 5534 5533
5758 5753 5748 5744 5738 5732 5725 5717 5708 5698 5687 5675 5664 5654 5645 5637 5629 5623 5618 5615 5612 5608 5604 5599 5594 5589 5583 5577 5571 5565 5560 5555 5550 5546 5544 5542 5539 5536 5533 5531 5529 5528 5528
5748 5743 5738 5733 5727 5720 5713 5704 5694 5682 5669 5656 5645 5635 5628 5623 5618 5615 5612 5609 5605 5601 5597 5592 5586 5581 5575 5570 5565 5559 5553 5548 5543 5539 5537 5535 5534 5531 5529 5526 5524 5522 5522
5739 5735 5729 5724 5717 5709 5701 5691 5680 5667 5653 5641 5631 5624 5619 5616 5613 5610 5607 5604 5600 5595 5590 5585 5580 5575 5571 5566 5561 5555 5549 5544 5540 5536 5533 5531 5529 5527 5525 5522 5520 5518 5518
5731 5726 5720 5714 5706 5698 5690 5680 5669 5657 5645 5635 5627 5621 5617 5614 5611 5608 5604 5600 5595 5590 5585 5580 5576 5571 5566 5561 5557 5552 5547 5542 5538 5534 5531 5528 5526 5524 5522 5519 5517 5515 5514
5722 5717 5710 5703 5696 5688 5680 5671 5662 5653 5644 5636 5629 5623 5618 5614 5610 5606 5601 5596 5591 5585 5580 5575 5570 5565 5560 5556 5551 5547 5543 5539 5535 5531 5528 5525 5523 5522 5520 5517 5515 5513 5513
5713 5707 5700 5693 5686 5678 5671 5664 5658 5652 5645 5638 5631 5626 5620 5615 5610 5605 5599 5592 5586 5580 5574 5568 5563 5558 5553 5549 5545 5541 5538 5535 5532 5528 5525 5522 5521 5520 5518 5516 5514 5512 5512
5704 5697 5690 5683 5676 5670 5664 5660 5656 5651 5645 5639 5633 5627 5621 5615 5608 5602 5595 5587 5580 5573 5567 5561 5555 5550 5545 5541 5538 5535 5532 5530 5527 5525 5522 5519 5518 5517 5516 5515 5513 5511 5511
5694 5687 5680 5674 5668 5664 5661 5658 5655 5651 5646 5640 5633 5627 5620 5613 5606 5599 5591 5583 5575 5567 5560 5554 5548 5543 5538 5534 5531 5528 5526 5524 5522 5520 5518 5516 5515 5514 5514 5514 5513 5511 5510
5685 5678 5672 5667 5664 5661 5660 5658 5655 5651 5646 5640 5633 5626 5619 5612 5603 5595 5586 5577 5569 5561 5553 5547 5541 5536 5532 5528 5524 5521 5519 5517 5516 5515 5515 5513 5512 5512 5513 5513 5513 5512 5512
5675 5670 5666 5664 5662 5661 5660 5658 5655 5651 5645 5639 5633 5626 5618 5610 5601 5592 5582 5572 5564 5556 5549 5542 5536 5530 5526 5522 5518 5515 5512 5511 5510 5510 5510 5510 5510 5510 5511 5512 5513 5513 5513
5668 5665 5663 5662 5661 5661 5660 5658 5655 5650 5645 5639 5632 5624 5617 5609 5600 5590 5580 5570 5561 5554 5547 5540 5534 5528 5523 5518 5514 5511 5507 5505 5504 5504 5506 5507 5507 5508 5509 5511 5513 5515 5516
5663 5662 5662 5662 5662 5662 5661 5658 5655 5650 5645 5638 5631 5624 5616 5608 5598 5588 5578 5568 5560 5553 5546 5539 5533 5527 5521 5515 5510 5506 5504 5502 5500 5500 5501 5503 5505 5507 5508 5511 5514 5516 5518
5661 5661 5662 5663 5663 5663 5661 5658 5655 5650 5645 5639 5631 5624 5616 5607 5597 5588 5578 5569 5561 5553 5546 5539 5532 5525 5518 5511 5505 5501 5499 5498 5497 5496 5498 5500 5503 5505 5507 5510 5514 5517 5520
5661 5662 5664 5665 5665 5663 5661 5659 5655 5651 5645 5639 5632 5624 5616 5607 5597 5588 5578 5569 5561 5553 5545 5537 5530 5522 5515 5508 5502 5496 5493 5493 5494 5494 5494 5497 5500 5503 5506 5509 5513 5517 5520